Tracking 19638 objects as of 20-May-2019
HD Live streaming from Space Station
objects crossing your sky now

ABS-1A (KOREASAT 2)

Track ABS-1A (KOREASAT 2) now!
ABS-1A (KOREASAT 2) is classified as:


NORAD ID: 23768
Int'l Code: 1996-003A
Perigee: 35,906.6 km
Apogee: 35,951.3 km
Inclination: 9.2 °
Period: 1,443.0 minutes
Semi major axis: 42299 km
RCS: 25.1188 m2 (large)
Launch date: January 14, 1996
Source: South Korea (SKOR)
Launch site: AIR FORCE EASTERN TEST RANGE (AFETR)

Korean peninsula; 15 Ku-band transponders.
aabbcc
Your satellite tracking list
Your tracking list is empty




NASA's NSSDC Master Catalog

Two Line Element Set (TLE):
1 23768U 96003A   19136.67028497 -.00000293 +00000-0 +00000-0 0  9992
2 23768 009.1737 042.2106 0005280 356.3996 184.2121 00.99791353085341
Source of the keplerian elements: AFSPC